SQ4LOL-9 Weather Reports


Display with metric or nautical units.
time (UTC)temp
F
wind
direction
speed
MPH
gust
MPH
rain 1hr
in
rain 24hr
in
rain mn
in
humidity
%
barometer
mb
20260507194359 60 0.0 0.0 0.00 0.00 0.00 47 994.7
20260507194353 59 0.0 0.0 0.00 0.00 0.00 47 994.8
20260507143506 87 0.0 0.0 0.00 0.00 0.00 30 991.8
20260507143434 86 0.0 0.0 0.00 0.00 0.00 30 991.7
20260507143428 86 0.0 0.0 0.00 0.00 0.00 30 991.8
20260507143420 86 0.0 0.0 0.00 0.00 0.00 30 991.6
20260507143413 86 0.0 0.0 0.00 0.00 0.00 30 991.3
20260507143025 87 0.0 0.0 0.00 0.00 0.00 29 991.8
20260507143009 87 0.0 0.0 0.00 0.00 0.00 29 991.9
20260507143003 87 0.0 0.0 0.00 0.00 0.00 29 991.9
20260507142950 87 0.0 0.0 0.00 0.00 0.00 29 991.8
20260507142431 87 0.0 0.0 0.00 0.00 0.00 29 991.9
20260507142418 87 0.0 0.0 0.00 0.00 0.00 29 991.7
20260507142405 87 0.0 0.0 0.00 0.00 0.00 29 991.8
20260507142339 87 0.0 0.0 0.00 0.00 0.00 29 991.8
20260507142332 87 0.0 0.0 0.00 0.00 0.00 30 991.9
20260507142326 87 0.0 0.0 0.00 0.00 0.00 30 992.0
20260507142319 87 0.0 0.0 0.00 0.00 0.00 29 991.9
20260507142307 87 0.0 0.0 0.00 0.00 0.00 29 991.7
20260507142300 86 0.0 0.0 0.00 0.00 0.00 30 991.6
20260507141852 88 0.0 0.0 0.00 0.00 0.00 27 991.9
20260507141846 88 0.0 0.0 0.00 0.00 0.00 27 991.8
20260507141839 88 0.0 0.0 0.00 0.00 0.00 28 991.6
20260507141819 88 0.0 0.0 0.00 0.00 0.00 27 991.4
20260507141812 88 0.0 0.0 0.00 0.00 0.00 27 991.6
20260507141806 88 0.0 0.0 0.00 0.00 0.00 28 991.7
20260507141753 88 0.0 0.0 0.00 0.00 0.00 28 991.7
20260507141746 87 0.0 0.0 0.00 0.00 0.00 28 991.7
20260507141740 87 0.0 0.0 0.00 0.00 0.00 28 991.8
20260507141720 87 0.0 0.0 0.00 0.00 0.00 29 992.0
20260507141714 87 0.0 0.0 0.00 0.00 0.00 28 992.0
20260507141707 87 0.0 0.0 0.00 0.00 0.00 28 991.9
20260507141701 86 0.0 0.0 0.00 0.00 0.00 29 991.5
20260507141648 87 0.0 0.0 0.00 0.00 0.00 29 991.8
20260507141641 87 0.0 0.0 0.00 0.00 0.00 29 991.9
20260507141628 86 0.0 0.0 0.00 0.00 0.00 29 991.8
20260507141615 86 0.0 0.0 0.00 0.00 0.00 29 991.7
20260507141609 86 0.0 0.0 0.00 0.00 0.00 29 991.6
20260507141556 86 0.0 0.0 0.00 0.00 0.00 29 991.7
20260507141549 86 0.0 0.0 0.00 0.00 0.00 29 991.6
20260507131311 90 0.0 0.0 0.00 0.00 0.00 43 994.1
20260507131212 90 0.0 0.0 0.00 0.00 0.00 43 994.1
20260507131206 90 0.0 0.0 0.00 0.00 0.00 43 994.2
20260507131159 89 0.0 0.0 0.00 0.00 0.00 44 994.2
20260507131153 89 0.0 0.0 0.00 0.00 0.00 44 994.3
20260507131124 89 0.0 0.0 0.00 0.00 0.00 44 994.4
20260507131107 89 0.0 0.0 0.00 0.00 0.00 45 994.3
20260507131100 89 0.0 0.0 0.00 0.00 0.00 45 994.4
20260507131047 88 0.0 0.0 0.00 0.00 0.00 45 994.3
20260507131026 88 0.0 0.0 0.00 0.00 0.00 45 994.4
20260507131007 88 0.0 0.0 0.00 0.00 0.00 46 994.4
20260507130948 87 0.0 0.0 0.00 0.00 0.00 46 994.4
20260507130941 87 0.0 0.0 0.00 0.00 0.00 46 994.2
20260507130928 87 0.0 0.0 0.00 0.00 0.00 46 994.1
20260507130915 87 0.0 0.0 0.00 0.00 0.00 47 994.1
20260507130903 86 0.0 0.0 0.00 0.00 0.00 47 994.1
20260507130810 85 0.0 0.0 0.00 0.00 0.00 48 994.0
20260507091248 83 0.0 0.0 0.00 0.00 0.00 36 991.3
20260507091241 82 0.0 0.0 0.00 0.00 0.00 36 991.2
20260507091235 82 0.0 0.0 0.00 0.00 0.00 36 991.1
20260507091228 82 0.0 0.0 0.00 0.00 0.00 36 991.0
20260507091222 82 0.0 0.0 0.00 0.00 0.00 37 990.9
20260507091215 82 0.0 0.0 0.00 0.00 0.00 37 990.5
20260507091209 82 0.0 0.0 0.00 0.00 0.00 37 990.2
20260507091202 82 0.0 0.0 0.00 0.00 0.00 37 989.9
20260507091149 82 0.0 0.0 0.00 0.00 0.00 37 989.6
20260507091142 82 0.0 0.0 0.00 0.00 0.00 36 989.6
20260507091136 82 0.0 0.0 0.00 0.00 0.00 37 989.5
20260507091129 82 0.0 0.0 0.00 0.00 0.00 37 989.3
20260507091116 82 0.0 0.0 0.00 0.00 0.00 37 989.6
20260507091110 82 0.0 0.0 0.00 0.00 0.00 37 989.8
20260507091050 82 0.0 0.0 0.00 0.00 0.00 37 989.9
20260507091043 82 0.0 0.0 0.00 0.00 0.00 37 989.8
20260507091037 82 0.0 0.0 0.00 0.00 0.00 37 989.7
20260507091030 81 0.0 0.0 0.00 0.00 0.00 37 989.6
20260507091024 81 0.0 0.0 0.00 0.00 0.00 37 989.3
20260507091017 81 0.0 0.0 0.00 0.00 0.00 37 988.8
20260507091011 81 0.0 0.0 0.00 0.00 0.00 37 988.5
20260507091004 81 0.0 0.0 0.00 0.00 0.00 37 988.3
20260507090944 81 0.0 0.0 0.00 0.00 0.00 37 988.9
20260507090936 81 0.0 0.0 0.00 0.00 0.00 37 988.6
20260507090930 81 0.0 0.0 0.00 0.00 0.00 37 988.4
20260507090923 81 0.0 0.0 0.00 0.00 0.00 37 988.8
20260507090917 81 0.0 0.0 0.00 0.00 0.00 37 989.0
20260507090910 81 0.0 0.0 0.00 0.00 0.00 38 989.2
20260507090904 81 0.0 0.0 0.00 0.00 0.00 37 989.2
20260507090857 81 0.0 0.0 0.00 0.00 0.00 37 989.0
20260507090849 81 0.0 0.0 0.00 0.00 0.00 37 988.7
20260507090843 81 0.0 0.0 0.00 0.00 0.00 37 988.5
20260507090836 81 0.0 0.0 0.00 0.00 0.00 38 988.0
20260507090823 81 0.0 0.0 0.00 0.00 0.00 38 987.6
20260507090817 81 0.0 0.0 0.00 0.00 0.00 38 987.7
20260507090807 81 0.0 0.0 0.00 0.00 0.00 38 987.8
20260507090800 81 0.0 0.0 0.00 0.00 0.00 38 987.8
20260507090754 80 0.0 0.0 0.00 0.00 0.00 38 988.1
20260507090747 80 0.0 0.0 0.00 0.00 0.00 38 988.9
20260507090741 80 0.0 0.0 0.00 0.00 0.00 38 989.4
20260507090734 80 0.0 0.0 0.00 0.00 0.00 38 989.3
20260507090728 80 0.0 0.0 0.00 0.00 0.00 38 989.2
20260507090721 80 0.0 0.0 0.00 0.00 0.00 38 988.6
20260507090715 80 0.0 0.0 0.00 0.00 0.00 38 988.1
20260507090710 80 0.0 0.0 0.00 0.00 0.00 38 987.9
20260507090655 80 0.0 0.0 0.00 0.00 0.00 38 987.9
20260507090649 80 0.0 0.0 0.00 0.00 0.00 38 988.0
20260507090642 80 0.0 0.0 0.00 0.00 0.00 38 988.3
20260507090636 80 0.0 0.0 0.00 0.00 0.00 38 988.5
20260507090620 80 0.0 0.0 0.00 0.00 0.00 39 988.8
20260507090613 80 0.0 0.0 0.00 0.00 0.00 39 989.1
20260507090606 80 0.0 0.0 0.00 0.00 0.00 39 989.4
20260507090600 80 0.0 0.0 0.00 0.00 0.00 39 989.4
20260507090553 80 0.0 0.0 0.00 0.00 0.00 39 989.3
20260507090547 80 0.0 0.0 0.00 0.00 0.00 39 989.1
20260507090540 80 0.0 0.0 0.00 0.00 0.00 39 988.9
20260507090534 80 0.0 0.0 0.00 0.00 0.00 40 988.9
20260507090520 79 0.0 0.0 0.00 0.00 0.00 39 988.6
20260507090514 79 0.0 0.0 0.00 0.00 0.00 40 988.8
20260507090507 79 0.0 0.0 0.00 0.00 0.00 40 988.7
20260507090501 79 0.0 0.0 0.00 0.00 0.00 40 988.5
20260507090448 79 0.0 0.0 0.00 0.00 0.00 40 988.7
20260507090441 79 0.0 0.0 0.00 0.00 0.00 40 988.6
20260507090428 79 0.0 0.0 0.00 0.00 0.00 40 988.5
20260507090408 79 0.0 0.0 0.00 0.00 0.00 40 988.9
20260507090402 78 0.0 0.0 0.00 0.00 0.00 40 988.4
20260507090341 79 0.0 0.0 0.00 0.00 0.00 40 988.7
20260507090335 79 0.0 0.0 0.00 0.00 0.00 40 988.8
20260507090329 79 0.0 0.0 0.00 0.00 0.00 40 988.6
20260507090322 78 0.0 0.0 0.00 0.00 0.00 40 988.1
20260507090316 78 0.0 0.0 0.00 0.00 0.00 41 988.5
20260507090309 78 0.0 0.0 0.00 0.00 0.00 41 988.4
20260507090250 78 0.0 0.0 0.00 0.00 0.00 41 988.4
20260507090243 78 0.0 0.0 0.00 0.00 0.00 41 988.3
20260507090237 78 0.0 0.0 0.00 0.00 0.00 41 988.1
20260507090231 78 0.0 0.0 0.00 0.00 0.00 41 987.9
20260507090224 77 0.0 0.0 0.00 0.00 0.00 41 986.8
20260507090211 78 0.0 0.0 0.00 0.00 0.00 41 987.4
20260507090205 78 0.0 0.0 0.00 0.00 0.00 41 987.5
20260507090158 78 0.0 0.0 0.00 0.00 0.00 41 987.7
20260507090151 78 0.0 0.0 0.00 0.00 0.00 41 987.8
20260507090145 78 0.0 0.0 0.00 0.00 0.00 41 988.0
20260507090138 77 0.0 0.0 0.00 0.00 0.00 42 987.7
20260507090132 77 0.0 0.0 0.00 0.00 0.00 42 987.5
20260507090106 77 0.0 0.0 0.00 0.00 0.00 42 987.4
20260507090046 77 0.0 0.0 0.00 0.00 0.00 42 987.3
20260507090033 77 0.0 0.0 0.00 0.00 0.00 42 987.2
20260507090027 77 0.0 0.0 0.00 0.00 0.00 43 987.1
20260507090020 76 0.0 0.0 0.00 0.00 0.00 43 987.1
20260507090014 76 0.0 0.0 0.00 0.00 0.00 43 987.2
20260507090007 76 0.0 0.0 0.00 0.00 0.00 43 987.3
20260507090001 76 0.0 0.0 0.00 0.00 0.00 43 987.4
20260507085954 76 0.0 0.0 0.00 0.00 0.00 43 987.8
20260507085947 76 0.0 0.0 0.00 0.00 0.00 43 988.0
20260507085941 76 0.0 0.0 0.00 0.00 0.00 43 988.2
20260507085934 76 0.0 0.0 0.00 0.00 0.00 43 988.5
20260507085928 76 0.0 0.0 0.00 0.00 0.00 43 988.7
20260507085922 76 0.0 0.0 0.00 0.00 0.00 43 988.8
20260507085915 76 0.0 0.0 0.00 0.00 0.00 43 988.9
20260507085908 76 0.0 0.0 0.00 0.00 0.00 43 989.0
20260507085855 76 0.0 0.0 0.00 0.00 0.00 43 989.0
20260507085849 75 0.0 0.0 0.00 0.00 0.00 44 989.1
20260507085842 75 0.0 0.0 0.00 0.00 0.00 44 988.9
20260507085829 75 0.0 0.0 0.00 0.00 0.00 44 988.6
20260507085823 75 0.0 0.0 0.00 0.00 0.00 44 988.8
20260507085816 75 0.0 0.0 0.00 0.00 0.00 43 988.9
20260507085810 75 0.0 0.0 0.00 0.00 0.00 43 989.2
20260507085803 75 0.0 0.0 0.00 0.00 0.00 43 989.5
20260507085750 75 0.0 0.0 0.00 0.00 0.00 44 989.4
20260507085744 75 0.0 0.0 0.00 0.00 0.00 44 989.3
20260507085737 75 0.0 0.0 0.00 0.00 0.00 44 989.1
20260507085731 75 0.0 0.0 0.00 0.00 0.00 44 989.0
20260507085724 75 0.0 0.0 0.00 0.00 0.00 44 988.8
20260507085711 74 0.0 0.0 0.00 0.00 0.00 44 988.9
20260507085705 74 0.0 0.0 0.00 0.00 0.00 45 988.9
20260507085632 74 0.0 0.0 0.00 0.00 0.00 45 989.0
20260507085613 74 0.0 0.0 0.00 0.00 0.00 45 988.8
20260507085607 74 0.0 0.0 0.00 0.00 0.00 45 988.9
20260507085600 73 0.0 0.0 0.00 0.00 0.00 45 989.2
20260507085554 73 0.0 0.0 0.00 0.00 0.00 45 989.3
20260507085541 73 0.0 0.0 0.00 0.00 0.00 45 989.5
20260507085534 73 0.0 0.0 0.00 0.00 0.00 45 989.4
20260507085521 73 0.0 0.0 0.00 0.00 0.00 46 989.5
20260507085515 73 0.0 0.0 0.00 0.00 0.00 46 989.7